Flag for U.S.A. Weather past 2 weeks in Jacksonville, Florida, U.S.A.

Now
85 °F

More clouds than sun.


Feels Like: 92 °F
Forecast: 72 / 82 °F
Wind: 7 mph from Southeast

Location: Jacksonville Naval Air Station

Current Time: Sep 18, 2014 at 8:19:31 PM

Latest Report: Sep 18, 2014 at 7:53 PM


Visibility: 10 mi

Pressure: 29.90 "Hg

Humidity: 70%

Dew point: 74 °F

Location of JacksonvilleLocation

Historic Weather in Jacksonville — Graph

°F

Jacksonville temperature yesterday

Maximum temperature yesterday: 89 °F (at 3:53 PM)
Minimum temperature yesterday: 74 °F (at 4:53 AM)
Average temperature yesterday: 81 °F

Past Weeks' High & Low Weather Summary

 TemperatureHumidityPressure
High94 °F (Sep 13, 3:53 PM)91% (Sep 17, 4:53 AM)30.16 "Hg (Sep 17, 4:53 AM)
Low74 °F (Sep 17, 4:53 AM)40% (Sep 13, 4:53 PM)29.84 "Hg (Sep 17, 4:53 PM)
Average83 °F71%30.02 "Hg
* Reported Sep 3 6:53 PM — Sep 18 6:53 PM, Jacksonville, Weather by CustomWeather, © 2014

Note: Actual official high and low records may vary slightly from our data, if they occured in-between our weather recording intervals... More about our weather records

Advertising

Jacksonville weather history for previous 24 hours

 ConditionsComfort  
Time TempWeatherWind HumidityBarometerVisibility
6:53 PM
Sep 18
85 °FBroken clouds.9 mph70%29.88 "Hg10 mi
5:53 PM89 °FBroken clouds.14 mph57%29.87 "Hg10 mi
4:53 PM91 °FBroken clouds.9 mph52%29.87 "Hg10 mi
3:53 PM92 °FBroken clouds.6 mph43%29.87 "Hg10 mi
2:53 PM93 °FBroken clouds.6 mph42%29.88 "Hg10 mi
1:53 PM92 °FBroken clouds.6 mph47%29.90 "Hg10 mi
12:53 PM90 °FBroken clouds.6 mph50%29.92 "Hg10 mi
11:53 AM88 °FPartly sunny.No wind55%29.94 "Hg10 mi
10:53 AM84 °FPartly sunny.5 mph65%29.94 "Hg10 mi
9:53 AM82 °FScattered clouds.6 mph67%29.93 "Hg10 mi
8:53 AM80 °FPassing clouds.3 mph74%29.93 "Hg10 mi
7:53 AM76 °FPassing clouds.6 mph85%29.90 "Hg9 mi
6:53 AM76 °FPassing clouds.5 mph85%29.89 "Hg10 mi
5:53 AM76 °FPassing clouds.5 mph85%29.87 "Hg10 mi
4:53 AM77 °FPassing clouds.6 mph82%29.88 "Hg10 mi
3:53 AM78 °FPassing clouds.6 mph79%29.86 "Hg10 mi
2:53 AM78 °FPassing clouds.3 mph79%29.88 "Hg10 mi
1:53 AM80 °FPassing clouds.7 mph71%29.88 "Hg10 mi
12:53 AM80 °FPassing clouds.7 mph76%29.90 "Hg10 mi
11:53 PM
Sep 17
83 °FPassing clouds.3 mph70%29.91 "Hg10 mi
10:53 PM83 °FPassing clouds.5 mph70%29.91 "Hg10 mi
9:53 PM83 °FPassing clouds.6 mph72%29.90 "Hg10 mi
8:53 PM85 °FPassing clouds.7 mph70%29.88 "Hg10 mi
Weather by CustomWeather, © 2014

See weather overviewHow to use our weather pages